| time (UTC) | temp C | wind direction | speed KPH | gust KPH | rain 1hr cm | rain 24hr cm | rain mn cm | humidity % | barometer mb |
| 20260509042751 | 10 | 196 | 8.0 | 19.3 | 0.00 | 0.00 | 0.00 | 52 | 976.2 |
| 20260509042251 | 10 | 338 | 8.0 | 19.3 | 0.00 | 0.00 | 0.00 | 52 | 976.1 |
| 20260509041751 | 10 | 197 | 8.0 | 19.3 | 0.00 | 0.00 | 0.00 | 53 | 976.0 |
| 20260509041251 | 10 | 255 | 8.0 | 17.7 | 0.00 | 0.00 | 0.00 | 54 | 976.1 |
| 20260509040751 | 9 | 185 | 6.4 | 16.1 | 0.00 | 0.00 | 0.00 | 54 | 976.0 |
| 20260509040251 | 8 | 231 | 8.0 | 22.5 | 0.00 | 0.00 | 0.00 | 56 | 976.0 |
| 20260509035721 | 8 | 64 | 9.7 | 27.4 | 0.00 | 0.00 | 0.00 | 57 | 976.2 |
| 20260509035221 | 8 | 59 | 9.7 | 27.4 | 0.00 | 0.00 | 0.00 | 56 | 976.1 |
| 20260509034721 | 7 | 219 | 9.7 | 25.7 | 0.00 | 0.00 | 0.00 | 59 | 976.1 |
| 20260509034221 | 7 | 97 | 8.0 | 22.5 | 0.00 | 0.00 | 0.00 | 61 | 976.1 |
| 20260509033721 | 7 | 222 | 9.7 | 25.7 | 0.00 | 0.00 | 0.00 | 62 | 976.2 |
| 20260509033221 | 7 | 211 | 9.7 | 25.7 | 0.00 | 0.00 | 0.00 | 62 | 976.2 |
| 20260509032651 | 7 | 77 | 9.7 | 25.7 | 0.00 | 0.00 | 0.00 | 62 | 976.2 |
| 20260509032151 | 7 | 46 | 6.4 | 19.3 | 0.00 | 0.00 | 0.00 | 63 | 976.2 |
| 20260509031621 | 7 | 46 | 8.0 | 20.9 | 0.00 | 0.00 | 0.00 | 63 | 976.1 |
| 20260509031121 | 7 | 91 | 8.0 | 20.9 | 0.00 | 0.00 | 0.00 | 63 | 976.2 |
| 20260509030551 | 7 | 34 | 8.0 | 19.3 | 0.00 | 0.00 | 0.00 | 62 | 976.2 |
| 20260509030051 | 7 | 52 | 9.7 | 29.0 | 0.00 | 0.00 | 0.00 | 62 | 976.2 |
| 20260509025551 | 7 | 58 | 8.0 | 29.0 | 0.00 | 0.00 | 0.00 | 61 | 976.1 |
| 20260509025051 | 7 | 68 | 8.0 | 29.0 | 0.00 | 0.00 | 0.00 | 61 | 976.0 |
| 20260509024551 | 7 | 44 | 8.0 | 22.5 | 0.00 | 0.00 | 0.00 | 61 | 976.0 |
| 20260509024051 | 7 | 79 | 6.4 | 20.9 | 0.00 | 0.00 | 0.00 | 61 | 976.0 |
| 20260509023521 | 7 | 204 | 6.4 | 17.7 | 0.00 | 0.00 | 0.00 | 62 | 976.0 |
| 20260509023021 | 6 | 288 | 6.4 | 17.7 | 0.00 | 0.00 | 0.00 | 64 | 976.0 |
| 20260509022521 | 6 | 58 | 6.4 | 17.7 | 0.00 | 0.00 | 0.00 | 65 | 976.0 |
| 20260509022021 | 6 | 164 | 8.0 | 17.7 | 0.00 | 0.00 | 0.00 | 65 | 976.0 |
| 20260509021451 | 6 | 67 | 8.0 | 17.7 | 0.00 | 0.00 | 0.00 | 64 | 976.1 |
| 20260509020950 | 6 | 57 | 8.0 | 20.9 | 0.00 | 0.00 | 0.00 | 64 | 976.1 |
| 20260509020421 | 6 | 95 | 6.4 | 20.9 | 0.00 | 0.00 | 0.00 | 63 | 976.1 |
| 20260509015920 | 6 | 99 | 8.0 | 19.3 | 0.00 | 0.00 | 0.00 | 62 | 976.1 |
| 20260509015420 | 7 | 31 | 8.0 | 19.3 | 0.00 | 0.00 | 0.00 | 62 | 976.2 |
| 20260509014920 | 7 | 0 | 8.0 | 19.3 | 0.00 | 0.00 | 0.00 | 62 | 976.1 |
| 20260509014350 | 7 | 78 | 6.4 | 17.7 | 0.00 | 0.00 | 0.00 | 62 | 976.2 |
| 20260509013850 | 6 | 87 | 8.0 | 19.3 | 0.00 | 0.00 | 0.00 | 62 | 976.2 |
| 20260509013350 | 7 | 62 | 8.0 | 19.3 | 0.00 | 0.00 | 0.00 | 62 | 976.2 |
| 20260509012850 | 7 | 54 | 8.0 | 19.3 | 0.00 | 0.00 | 0.00 | 62 | 976.2 |
| 20260509012350 | 7 | 75 | 8.0 | 17.7 | 0.00 | 0.00 | 0.00 | 61 | 976.2 |
| 20260509011820 | 7 | 73 | 9.7 | 20.9 | 0.00 | 0.00 | 0.00 | 60 | 976.2 |
| 20260509011320 | 7 | 54 | 9.7 | 20.9 | 0.00 | 0.00 | 0.00 | 60 | 976.2 |
| 20260509010820 | 7 | 44 | 12.9 | 22.5 | 0.00 | 0.00 | 0.00 | 59 | 976.3 |
| 20260509010320 | 7 | 77 | 12.9 | 25.7 | 0.00 | 0.00 | 0.00 | 59 | 976.2 |
| 20260509005820 | 7 | 47 | 11.3 | 25.7 | 0.00 | 0.00 | 0.00 | 59 | 976.2 |
| 20260509005320 | 7 | 68 | 9.7 | 22.5 | 0.00 | 0.00 | 0.00 | 60 | 976.3 |
| 20260509004820 | 7 | 76 | 9.7 | 22.5 | 0.00 | 0.00 | 0.00 | 61 | 976.1 |
| 20260509004250 | 7 | 117 | 9.7 | 20.9 | 0.00 | 0.00 | 0.00 | 62 | 976.3 |
| 20260509003750 | 7 | 73 | 8.0 | 20.9 | 0.00 | 0.00 | 0.00 | 62 | 976.2 |
| 20260509003250 | 7 | 105 | 8.0 | 19.3 | 0.00 | 0.00 | 0.00 | 62 | 976.3 |
| 20260509002720 | 7 | 63 | 9.7 | 20.9 | 0.00 | 0.00 | 0.00 | 61 | 976.3 |
| 20260509002220 | 7 | 62 | 8.0 | 20.9 | 0.00 | 0.00 | 0.00 | 60 | 976.4 |
| 20260509001720 | 7 | 57 | 6.4 | 20.9 | 0.00 | 0.00 | 0.00 | 59 | 976.3 |
| 20260509001220 | 7 | 8 | 6.4 | 20.9 | 0.00 | 0.00 | 0.00 | 59 | 976.3 |
| 20260509000720 | 7 | 209 | 6.4 | 17.7 | 0.00 | 0.00 | 0.00 | 60 | 976.4 |
| 20260509000220 | 7 | 50 | 8.0 | 17.7 | 0.00 | 0.00 | 0.00 | 61 | 976.3 |
| 20260508235650 | 7 | 217 | 9.7 | 20.9 | 0.00 | 0.00 | 0.00 | 63 | 976.5 |
| 20260508235150 | 7 | 64 | 9.7 | 20.9 | 0.00 | 0.00 | 0.00 | 63 | 976.5 |
| 20260508234650 | 7 | 95 | 9.7 | 17.7 | 0.00 | 0.00 | 0.00 | 62 | 976.6 |
| 20260508234149 | 7 | 51 | 9.7 | 17.7 | 0.00 | 0.00 | 0.00 | 62 | 976.5 |
| 20260508233620 | 7 | 75 | 9.7 | 17.7 | 0.00 | 0.00 | 0.00 | 62 | 976.6 |
| 20260508233119 | 7 | 42 | 8.0 | 17.7 | 0.00 | 0.00 | 0.00 | 60 | 976.5 |
| 20260508232550 | 7 | 66 | 8.0 | 17.7 | 0.00 | 0.00 | 0.00 | 59 | 976.5 |
| 20260508232049 | 7 | 51 | 8.0 | 16.1 | 0.00 | 0.00 | 0.00 | 58 | 976.5 |
| 20260508231550 | 7 | 60 | 8.0 | 14.5 | 0.00 | 0.00 | 0.00 | 57 | 976.3 |
| 20260508231049 | 7 | 49 | 6.4 | 12.9 | 0.00 | 0.00 | 0.00 | 57 | 976.2 |
| 20260508230520 | 7 | 50 | 6.4 | 12.9 | 0.00 | 0.00 | 0.00 | 57 | 976.2 |
| 20260508225949 | 7 | 49 | 6.4 | 12.9 | 0.00 | 0.00 | 0.00 | 57 | 976.3 |
| 20260508225449 | 7 | 62 | 6.4 | 12.9 | 0.00 | 0.00 | 0.00 | 56 | 976.3 |
| 20260508224949 | 7 | 30 | 6.4 | 12.9 | 0.00 | 0.00 | 0.00 | 56 | 976.3 |
| 20260508224419 | 7 | 39 | 4.8 | 11.3 | 0.00 | 0.00 | 0.00 | 54 | 976.4 |
| 20260508223919 | 8 | 35 | 4.8 | 11.3 | 0.00 | 0.00 | 0.00 | 53 | 976.4 |
| 20260508223349 | 8 | 61 | 1.6 | 6.4 | 0.00 | 0.00 | 0.00 | 52 | 976.4 |
| 20260508222849 | 8 | 158 | 3.2 | 6.4 | 0.00 | 0.00 | 0.00 | 52 | 976.4 |
| 20260508222319 | 8 | 154 | 3.2 | 9.7 | 0.00 | 0.00 | 0.00 | 52 | 976.3 |
| 20260508221819 | 8 | 199 | 4.8 | 16.1 | 0.00 | 0.00 | 0.00 | 51 | 976.3 |
| 20260508221249 | 8 | 207 | 4.8 | 16.1 | 0.00 | 0.00 | 0.00 | 50 | 976.4 |
| 20260508220750 | 8 | 209 | 4.8 | 16.1 | 0.00 | 0.00 | 0.00 | 50 | 976.3 |
| 20260508220249 | 8 | 257 | 4.8 | 12.9 | 0.00 | 0.00 | 0.00 | 51 | 976.3 |
| 20260508215749 | 8 | 225 | 4.8 | 11.3 | 0.00 | 0.00 | 0.00 | 51 | 976.4 |
| 20260508215249 | 8 | 231 | 4.8 | 12.9 | 0.00 | 0.00 | 0.00 | 50 | 976.4 |
| 20260508214749 | 8 | 193 | 4.8 | 12.9 | 0.00 | 0.00 | 0.00 | 50 | 976.4 |
| 20260508214249 | 8 | 226 | 4.8 | 12.9 | 0.00 | 0.00 | 0.00 | 50 | 976.3 |
| 20260508213749 | 8 | 216 | 4.8 | 11.3 | 0.00 | 0.00 | 0.00 | 50 | 976.4 |
| 20260508213249 | 8 | 61 | 4.8 | 14.5 | 0.00 | 0.00 | 0.00 | 49 | 976.5 |
| 20260508212749 | 8 | 68 | 6.4 | 16.1 | 0.00 | 0.00 | 0.00 | 48 | 976.3 |
| 20260508212249 | 8 | 64 | 8.0 | 16.1 | 0.00 | 0.00 | 0.00 | 47 | 976.4 |
| 20260508211749 | 8 | 68 | 6.4 | 16.1 | 0.00 | 0.00 | 0.00 | 47 | 976.4 |
| 20260508211249 | 8 | 60 | 6.4 | 14.5 | 0.00 | 0.00 | 0.00 | 46 | 976.4 |
| 20260508210749 | 8 | 92 | 4.8 | 14.5 | 0.00 | 0.00 | 0.00 | 45 | 976.4 |
| 20260508210219 | 8 | 199 | 4.8 | 11.3 | 0.00 | 0.00 | 0.00 | 45 | 976.3 |
| 20260508205719 | 8 | 59 | 4.8 | 11.3 | 0.00 | 0.00 | 0.00 | 44 | 976.3 |
| 20260508205219 | 9 | 195 | 4.8 | 14.5 | 0.00 | 0.00 | 0.00 | 45 | 976.4 |
| 20260508204719 | 9 | 229 | 4.8 | 14.5 | 0.00 | 0.00 | 0.00 | 45 | 976.3 |
| 20260508204219 | 8 | 200 | 4.8 | 11.3 | 0.00 | 0.00 | 0.00 | 45 | 976.3 |
| 20260508203719 | 8 | 231 | 3.2 | 11.3 | 0.00 | 0.00 | 0.00 | 44 | 976.2 |
| 20260508203219 | 9 | 246 | 3.2 | 9.7 | 0.00 | 0.00 | 0.00 | 43 | 976.2 |
| 20260508202719 | 9 | 335 | 3.2 | 9.7 | 0.00 | 0.00 | 0.00 | 43 | 976.1 |
| 20260508202219 | 9 | 237 | 3.2 | 9.7 | 0.00 | 0.00 | 0.00 | 42 | 976.1 |
| 20260508201719 | 9 | 293 | 3.2 | 9.7 | 0.00 | 0.00 | 0.00 | 41 | 976.1 |
| 20260508201219 | 9 | 257 | 3.2 | 9.7 | 0.00 | 0.00 | 0.00 | 41 | 976.2 |
| 20260508200718 | 9 | 253 | 3.2 | 8.0 | 0.00 | 0.00 | 0.00 | 40 | 976.1 |
| 20260508200148 | 9 | 244 | 3.2 | 8.0 | 0.00 | 0.00 | 0.00 | 40 | 976.2 |
| 20260508195618 | 9 | 226 | 3.2 | 8.0 | 0.00 | 0.00 | 0.00 | 40 | 976.0 |
| 20260508195118 | 10 | 232 | 3.2 | 8.0 | 0.00 | 0.00 | 0.00 | 40 | 976.0 |
| 20260508194618 | 10 | 239 | 4.8 | 11.3 | 0.00 | 0.00 | 0.00 | 39 | 976.0 |
| 20260508194118 | 10 | 155 | 4.8 | 11.3 | 0.00 | 0.00 | 0.00 | 39 | 976.0 |
| 20260508193618 | 10 | 153 | 4.8 | 9.7 | 0.00 | 0.00 | 0.00 | 39 | 976.0 |
| 20260508193118 | 10 | 172 | 4.8 | 9.7 | 0.00 | 0.00 | 0.00 | 39 | 976.0 |
| 20260508192618 | 10 | 234 | 3.2 | 8.0 | 0.00 | 0.00 | 0.00 | 40 | 976.0 |
| 20260508192048 | 10 | 170 | 3.2 | 6.4 | 0.00 | 0.00 | 0.00 | 41 | 976.0 |
| 20260508191548 | 10 | 272 | 3.2 | 6.4 | 0.00 | 0.00 | 0.00 | 40 | 976.0 |
| 20260508191048 | 10 | 210 | 3.2 | 8.0 | 0.00 | 0.00 | 0.00 | 40 | 976.0 |
| 20260508190548 | 11 | 236 | 3.2 | 9.7 | 0.00 | 0.00 | 0.00 | 40 | 975.6 |
| 20260508190048 | 11 | 131 | 4.8 | 11.3 | 0.00 | 0.00 | 0.00 | 39 | 976.0 |
| 20260508185518 | 11 | 136 | 6.4 | 16.1 | 0.00 | 0.00 | 0.00 | 39 | 976.0 |
| 20260508185018 | 11 | 174 | 4.8 | 16.1 | 0.00 | 0.00 | 0.00 | 37 | 976.0 |
| 20260508184518 | 11 | 153 | 3.2 | 8.0 | 0.00 | 0.00 | 0.00 | 38 | 976.0 |
| 20260508184018 | 11 | 241 | 3.2 | 8.0 | 0.00 | 0.00 | 0.00 | 37 | 975.6 |
| 20260508183518 | 11 | 268 | 3.2 | 6.4 | 0.00 | 0.00 | 0.00 | 37 | 976.0 |
| 20260508183018 | 12 | 241 | 3.2 | 8.0 | 0.00 | 0.00 | 0.00 | 37 | 975.5 |
| 20260508182518 | 12 | 227 | 3.2 | 8.0 | 0.00 | 0.00 | 0.00 | 36 | 975.5 |
| 20260508182018 | 12 | 245 | 3.2 | 8.0 | 0.00 | 0.00 | 0.00 | 36 | 975.6 |
| 20260508181518 | 12 | 251 | 3.2 | 8.0 | 0.00 | 0.00 | 0.00 | 36 | 975.6 |
| 20260508181018 | 12 | 220 | 3.2 | 9.7 | 0.00 | 0.00 | 0.00 | 35 | 975.6 |
| 20260508180518 | 13 | 232 | 3.2 | 9.7 | 0.00 | 0.00 | 0.00 | 35 | 975.6 |
| 20260508180018 | 13 | 43 | 3.2 | 9.7 | 0.00 | 0.00 | 0.00 | 32 | 975.6 |
| 20260508175518 | 13 | 166 | 1.6 | 4.8 | 0.00 | 0.00 | 0.00 | 32 | 975.5 |
| 20260508174948 | 13 | 246 | 1.6 | 4.8 | 0.00 | 0.00 | 0.00 | 33 | 975.5 |
| 20260508174448 | 13 | 226 | 1.6 | 6.4 | 0.00 | 0.00 | 0.00 | 32 | 975.3 |
| 20260508173948 | 13 | 114 | 1.6 | 6.4 | 0.00 | 0.00 | 0.00 | 32 | 975.5 |
| 20260508173448 | 13 | 84 | 1.6 | 8.0 | 0.00 | 0.00 | 0.00 | 32 | 975.5 |
| 20260508172948 | 14 | 164 | 3.2 | 8.0 | 0.00 | 0.00 | 0.00 | 31 | 975.4 |
| 20260508172448 | 14 | 72 | 1.6 | 6.4 | 0.00 | 0.00 | 0.00 | 30 | 975.4 |
| 20260508171948 | 14 | 206 | 1.6 | 9.7 | 0.00 | 0.00 | 0.00 | 30 | 975.3 |
| 20260508171448 | 14 | 27 | 3.2 | 9.7 | 0.00 | 0.00 | 0.00 | 29 | 975.3 |
| 20260508170948 | 14 | 188 | 3.2 | 9.7 | 0.00 | 0.00 | 0.00 | 30 | 975.4 |
| 20260508170448 | 14 | 72 | 3.2 | 9.7 | 0.00 | 0.00 | 0.00 | 28 | 975.4 |
| 20260508165918 | 15 | 103 | 1.6 | 6.4 | 0.00 | 0.00 | 0.00 | 30 | 975.4 |
| 20260508165418 | 15 | 192 | 3.2 | 11.3 | 0.00 | 0.00 | 0.00 | 30 | 975.4 |
| 20260508164918 | 15 | 259 | 3.2 | 11.3 | 0.00 | 0.00 | 0.00 | 29 | 975.4 |
| 20260508164417 | 15 | 200 | 3.2 | 6.4 | 0.00 | 0.00 | 0.00 | 28 | 975.6 |
| 20260508163847 | 15 | 244 | 3.2 | 6.4 | 0.00 | 0.00 | 0.00 | 30 | 975.6 |
| 20260508163317 | 15 | 160 | 3.2 | 6.4 | 0.00 | 0.00 | 0.00 | 29 | 975.6 |
| 20260508162817 | 15 | 173 | 3.2 | 12.9 | 0.00 | 0.00 | 0.00 | 28 | 975.6 |
| 20260508162317 | 15 | 289 | 3.2 | 12.9 | 0.00 | 0.00 | 0.00 | 29 | 975.6 |
| 20260508161817 | 15 | 117 | 3.2 | 9.7 | 0.00 | 0.00 | 0.00 | 29 | 975.5 |
| 20260508161317 | 15 | 157 | 3.2 | 9.7 | 0.00 | 0.00 | 0.00 | 28 | 975.5 |
| 20260508160747 | 15 | 139 | 3.2 | 9.7 | 0.00 | 0.00 | 0.00 | 29 | 975.6 |
| 20260508160247 | 15 | 97 | 4.8 | 11.3 | 0.00 | 0.00 | 0.00 | 29 | 975.6 |
| 20260508155717 | 15 | 219 | 4.8 | 16.1 | 0.00 | 0.00 | 0.00 | 28 | 975.6 |
| 20260508155217 | 15 | 330 | 4.8 | 20.9 | 0.00 | 0.00 | 0.00 | 28 | 975.6 |
| 20260508154717 | 15 | 218 | 6.4 | 27.4 | 0.00 | 0.00 | 0.00 | 29 | 975.5 |
| 20260508154217 | 15 | 156 | 6.4 | 27.4 | 0.00 | 0.00 | 0.00 | 28 | 975.5 |
| 20260508153717 | 15 | 71 | 6.4 | 27.4 | 0.00 | 0.00 | 0.00 | 26 | 975.5 |
| 20260508153217 | 15 | 232 | 6.4 | 25.7 | 0.00 | 0.00 | 0.00 | 28 | 975.6 |
| 20260508152717 | 15 | 221 | 4.8 | 25.7 | 0.00 | 0.00 | 0.00 | 28 | 975.6 |
| 20260508152217 | 15 | 192 | 4.8 | 14.5 | 0.00 | 0.00 | 0.00 | 29 | 976.0 |
| 20260508151717 | 15 | 202 | 4.8 | 12.9 | 0.00 | 0.00 | 0.00 | 28 | 976.0 |
| 20260508151217 | 15 | 214 | 4.8 | 12.9 | 0.00 | 0.00 | 0.00 | 29 | 975.6 |
| 20260508150647 | 15 | 205 | 3.2 | 11.3 | 0.00 | 0.00 | 0.00 | 30 | 976.0 |
| 20260508150117 | 15 | 134 | 4.8 | 20.9 | 0.00 | 0.00 | 0.00 | 28 | 976.0 |
| 20260508145617 | 14 | 237 | 6.4 | 20.9 | 0.00 | 0.00 | 0.00 | 30 | 976.0 |
| 20260508145117 | 15 | 337 | 6.4 | 20.9 | 0.00 | 0.00 | 0.00 | 31 | 976.0 |
| 20260508144617 | 14 | 207 | 9.7 | 27.4 | 0.00 | 0.00 | 0.00 | 31 | 976.0 |
| 20260508144047 | 14 | 50 | 11.3 | 27.4 | 0.00 | 0.00 | 0.00 | 30 | 976.0 |
| 20260508143547 | 14 | 86 | 8.0 | 25.7 | 0.00 | 0.00 | 0.00 | 30 | 976.0 |
| 20260508143047 | 14 | 231 | 6.4 | 25.7 | 0.00 | 0.00 | 0.00 | 30 | 976.0 |
| 20260508142517 | 14 | 178 | 9.7 | 25.7 | 0.00 | 0.00 | 0.00 | 31 | 976.0 |
| 20260508142017 | 13 | 66 | 9.7 | 25.7 | 0.00 | 0.00 | 0.00 | 30 | 976.0 |
| 20260508141517 | 14 | 45 | 6.4 | 19.3 | 0.00 | 0.00 | 0.00 | 30 | 976.0 |
| 20260508141017 | 15 | 261 | 4.8 | 14.5 | 0.00 | 0.00 | 0.00 | 31 | 976.1 |
| 20260508140517 | 15 | 142 | 6.4 | 16.1 | 0.00 | 0.00 | 0.00 | 32 | 976.1 |
| 20260508140016 | 14 | 128 | 8.0 | 19.3 | 0.00 | 0.00 | 0.00 | 30 | 976.3 |
| 20260508135516 | 14 | 50 | 8.0 | 20.9 | 0.00 | 0.00 | 0.00 | 30 | 976.3 |
| 20260508134946 | 14 | 18 | 12.9 | 27.4 | 0.00 | 0.00 | 0.00 | 30 | 976.2 |
| 20260508134446 | 13 | 51 | 12.9 | 27.4 | 0.00 | 0.00 | 0.00 | 31 | 976.2 |
| 20260508133946 | 13 | 62 | 12.9 | 27.4 | 0.00 | 0.00 | 0.00 | 29 | 976.4 |
| 20260508133446 | 13 | 17 | 11.3 | 27.4 | 0.00 | 0.00 | 0.00 | 29 | 976.5 |
| 20260508132916 | 13 | 62 | 11.3 | 27.4 | 0.00 | 0.00 | 0.00 | 30 | 976.6 |
| 20260508132416 | 14 | 129 | 11.3 | 27.4 | 0.00 | 0.00 | 0.00 | 30 | 977.0 |
| 20260508131846 | 13 | 54 | 9.7 | 24.1 | 0.00 | 0.00 | 0.00 | 31 | 977.0 |
| 20260508131346 | 13 | 65 | 8.0 | 24.1 | 0.00 | 0.00 | 0.00 | 28 | 977.0 |
| 20260508130846 | 14 | 120 | 4.8 | 14.5 | 0.00 | 0.00 | 0.00 | 28 | 977.0 |
| 20260508130346 | 14 | 229 | 4.8 | 20.9 | 0.00 | 0.00 | 0.00 | 30 | 977.0 |
| 20260508125846 | 14 | 131 | 6.4 | 20.9 | 0.00 | 0.00 | 0.00 | 30 | 977.0 |
| 20260508125316 | 13 | 275 | 8.0 | 20.9 | 0.00 | 0.00 | 0.00 | 29 | 977.0 |
| 20260508124816 | 14 | 143 | 8.0 | 17.7 | 0.00 | 0.00 | 0.00 | 30 | 977.0 |
| 20260508124316 | 14 | 154 | 9.7 | 30.6 | 0.00 | 0.00 | 0.00 | 30 | 977.0 |
| 20260508123816 | 13 | 206 | 11.3 | 30.6 | 0.00 | 0.00 | 0.00 | 27 | 977.0 |
| 20260508123316 | 14 | 66 | 8.0 | 32.2 | 0.00 | 0.00 | 0.00 | 26 | 977.0 |
| 20260508122816 | 14 | 281 | 8.0 | 32.2 | 0.00 | 0.00 | 0.00 | 26 | 977.0 |
| 20260508122316 | 15 | 237 | 6.4 | 19.3 | 0.00 | 0.00 | 0.00 | 28 | 977.0 |
| 20260508121816 | 14 | 96 | 8.0 | 24.1 | 0.00 | 0.00 | 0.00 | 29 | 977.0 |
| 20260508121316 | 14 | 183 | 9.7 | 27.4 | 0.00 | 0.00 | 0.00 | 29 | 977.0 |
| 20260508120816 | 13 | 246 | 12.9 | 33.8 | 0.00 | 0.00 | 0.00 | 29 | 977.0 |
| 20260508120246 | 13 | 117 | 14.5 | 33.8 | 0.00 | 0.00 | 0.00 | 33 | 977.0 |
| 20260508115746 | 13 | 62 | 12.9 | 32.2 | 0.00 | 0.00 | 0.00 | 32 | 977.0 |
| 20260508115246 | 13 | 29 | 12.9 | 30.6 | 0.00 | 0.00 | 0.00 | 32 | 977.0 |
| 20260508114746 | 12 | 42 | 12.9 | 30.6 | 0.00 | 0.00 | 0.00 | 32 | 977.0 |
| 20260508114216 | 13 | 57 | 8.0 | 29.0 | 0.00 | 0.00 | 0.00 | 31 | 977.0 |
| 20260508113716 | 14 | 72 | 9.7 | 27.4 | 0.00 | 0.00 | 0.00 | 32 | 977.0 |
| 20260508113216 | 13 | 185 | 9.7 | 27.4 | 0.00 | 0.00 | 0.00 | 33 | 977.0 |
| 20260508112716 | 13 | 25 | 9.7 | 27.4 | 0.00 | 0.00 | 0.00 | 30 | 977.0 |
| 20260508112216 | 14 | 56 | 9.7 | 29.0 | 0.00 | 0.00 | 0.00 | 30 | 977.0 |
| 20260508111716 | 14 | 9 | 9.7 | 29.0 | 0.00 | 0.00 | 0.00 | 30 | 977.0 |
| 20260508111146 | 13 | 60 | 9.7 | 29.0 | 0.00 | 0.00 | 0.00 | 30 | 977.0 |
| 20260508110646 | 14 | 122 | 8.0 | 22.5 | 0.00 | 0.00 | 0.00 | 30 | 977.0 |
| 20260508110146 | 13 | 35 | 9.7 | 29.0 | 0.00 | 0.00 | 0.00 | 28 | 977.1 |
| 20260508105646 | 13 | 215 | 11.3 | 29.0 | 0.00 | 0.00 | 0.00 | 33 | 977.0 |
| 20260508105146 | 13 | 61 | 11.3 | 33.8 | 0.00 | 0.00 | 0.00 | 29 | 977.0 |
| 20260508104646 | 14 | 86 | 12.9 | 33.8 | 0.00 | 0.00 | 0.00 | 31 | 977.0 |
| 20260508104146 | 13 | 108 | 14.5 | 33.8 | 0.00 | 0.00 | 0.00 | 31 | 977.1 |
| 20260508103646 | 13 | 74 | 12.9 | 29.0 | 0.00 | 0.00 | 0.00 | 31 | 977.0 |
| 20260508103116 | 13 | 49 | 9.7 | 29.0 | 0.00 | 0.00 | 0.00 | 33 | 977.1 |
| 20260508102616 | 13 | 66 | 8.0 | 27.4 | 0.00 | 0.00 | 0.00 | 27 | 977.0 |
| 20260508102116 | 14 | 275 | 8.0 | 24.1 | 0.00 | 0.00 | 0.00 | 29 | 977.0 |
| 20260508101546 | 13 | 73 | 6.4 | 24.1 | 0.00 | 0.00 | 0.00 | 28 | 977.1 |
| 20260508101016 | 14 | 194 | 6.4 | 19.3 | 0.00 | 0.00 | 0.00 | 31 | 977.0 |
| 20260508100516 | 13 | 48 | 9.7 | 24.1 | 0.00 | 0.00 | 0.00 | 32 | 977.1 |
| 20260508100016 | 13 | 216 | 12.9 | 25.7 | 0.00 | 0.00 | 0.00 | 33 | 977.1 |
| 20260508095446 | 12 | 59 | 14.5 | 27.4 | 0.00 | 0.00 | 0.00 | 31 | 977.1 |
| 20260508094946 | 12 | 60 | 14.5 | 27.4 | 0.00 | 0.00 | 0.00 | 32 | 977.2 |
| 20260508094416 | 12 | 65 | 11.3 | 25.7 | 0.00 | 0.00 | 0.00 | 31 | 977.3 |
| 20260508093916 | 13 | 92 | 8.0 | 22.5 | 0.00 | 0.00 | 0.00 | 33 | 977.4 |
| 20260508093346 | 14 | 163 | 8.0 | 27.4 | 0.00 | 0.00 | 0.00 | 33 | 977.4 |
| 20260508092846 | 13 | 56 | 8.0 | 27.4 | 0.00 | 0.00 | 0.00 | 35 | 977.3 |
| 20260508092346 | 13 | 312 | 8.0 | 22.5 | 0.00 | 0.00 | 0.00 | 37 | 977.5 |
| 20260508091845 | 13 | 171 | 11.3 | 25.7 | 0.00 | 0.00 | 0.00 | 39 | 977.5 |
| 20260508091345 | 12 | 56 | 9.7 | 25.7 | 0.00 | 0.00 | 0.00 | 36 | 977.5 |
| 20260508090845 | 12 | 98 | 9.7 | 25.7 | 0.00 | 0.00 | 0.00 | 37 | 977.5 |
| 20260508090345 | 13 | 117 | 9.7 | 24.1 | 0.00 | 0.00 | 0.00 | 37 | 977.5 |
| 20260508085845 | 12 | 55 | 11.3 | 27.4 | 0.00 | 0.00 | 0.00 | 38 | 977.5 |
| 20260508085345 | 12 | 156 | 9.7 | 32.2 | 0.00 | 0.00 | 0.00 | 40 | 977.5 |
| 20260508084845 | 12 | 44 | 6.4 | 32.2 | 0.00 | 0.00 | 0.00 | 37 | 977.5 |
| 20260508084345 | 12 | 182 | 8.0 | 20.9 | 0.00 | 0.00 | 0.00 | 42 | 977.9 |
| 20260508083815 | 12 | 57 | 11.3 | 22.5 | 0.00 | 0.00 | 0.00 | 43 | 977.8 |
| 20260508083315 | 11 | 72 | 11.3 | 22.5 | 0.00 | 0.00 | 0.00 | 45 | 977.4 |
| 20260508082746 | 11 | 67 | 11.3 | 24.1 | 0.00 | 0.00 | 0.00 | 47 | 977.5 |
| 20260508082246 | 10 | 236 | 12.9 | 24.1 | 0.00 | 0.00 | 0.00 | 47 | 977.8 |
| 20260508081745 | 10 | 79 | 12.9 | 22.5 | 0.00 | 0.00 | 0.00 | 49 | 977.8 |
| 20260508081245 | 10 | 74 | 12.9 | 22.5 | 0.00 | 0.00 | 0.00 | 50 | 977.8 |
| 20260508080745 | 10 | 59 | 12.9 | 24.1 | 0.00 | 0.00 | 0.00 | 48 | 977.5 |
| 20260508080245 | 10 | 63 | 12.9 | 24.1 | 0.00 | 0.00 | 0.00 | 50 | 977.8 |
| 20260508075745 | 9 | 38 | 12.9 | 24.1 | 0.00 | 0.00 | 0.00 | 50 | 977.6 |
| 20260508075215 | 9 | 13 | 11.3 | 24.1 | 0.00 | 0.00 | 0.00 | 53 | 978.1 |
| 20260508074715 | 8 | 66 | 11.3 | 22.5 | 0.00 | 0.00 | 0.00 | 56 | 978.0 |
| 20260508074215 | 7 | 42 | 9.7 | 17.7 | 0.00 | 0.00 | 0.00 | 57 | 978.1 |
| 20260508073645 | 7 | 47 | 11.3 | 17.7 | 0.00 | 0.00 | 0.00 | 57 | 978.0 |
| 20260508073145 | 7 | 70 | 11.3 | 20.9 | 0.00 | 0.00 | 0.00 | 57 | 978.0 |
| 20260508072645 | 7 | 31 | 12.9 | 24.1 | 0.00 | 0.00 | 0.00 | 55 | 977.6 |
| 20260508072145 | 7 | 47 | 14.5 | 24.1 | 0.00 | 0.00 | 0.00 | 54 | 978.0 |
| 20260508071645 | 8 | 51 | 12.9 | 25.7 | 0.00 | 0.00 | 0.00 | 53 | 978.0 |
| 20260508071115 | 8 | 26 | 12.9 | 25.7 | 0.00 | 0.00 | 0.00 | 53 | 978.0 |
| 20260508070615 | 8 | 44 | 12.9 | 25.7 | 0.00 | 0.00 | 0.00 | 53 | 978.0 |
| 20260508070045 | 8 | 42 | 11.3 | 25.7 | 0.00 | 0.00 | 0.00 | 51 | 977.5 |
| 20260508065515 | 8 | 70 | 9.7 | 20.9 | 0.00 | 0.00 | 0.00 | 50 | 978.0 |
| 20260508065015 | 9 | 22 | 9.7 | 20.9 | 0.00 | 0.00 | 0.00 | 51 | 978.1 |
| 20260508064445 | 8 | 33 | 11.3 | 22.5 | 0.00 | 0.00 | 0.00 | 53 | 978.0 |
| 20260508063945 | 8 | 68 | 11.3 | 25.7 | 0.00 | 0.00 | 0.00 | 52 | 977.6 |
| 20260508063445 | 7 | 51 | 12.9 | 25.7 | 0.00 | 0.00 | 0.00 | 54 | 978.0 |
| 20260508062945 | 8 | 19 | 11.3 | 22.5 | 0.00 | 0.00 | 0.00 | 51 | 978.0 |
| 20260508062415 | 7 | 43 | 11.3 | 22.5 | 0.00 | 0.00 | 0.00 | 52 | 978.0 |
| 20260508061915 | 7 | 56 | 11.3 | 22.5 | 0.00 | 0.00 | 0.00 | 51 | 978.0 |
| 20260508061345 | 7 | 51 | 11.3 | 20.9 | 0.00 | 0.00 | 0.00 | 53 | 978.0 |
| 20260508060815 | 6 | 7 | 12.9 | 25.7 | 0.00 | 0.00 | 0.00 | 53 | 978.0 |
| 20260508060315 | 6 | 19 | 12.9 | 25.7 | 0.00 | 0.00 | 0.00 | 55 | 978.0 |
| 20260508055815 | 6 | 30 | 11.3 | 25.7 | 0.00 | 0.00 | 0.00 | 53 | 978.0 |
| 20260508055315 | 6 | 0 | 11.3 | 20.9 | 0.00 | 0.00 | 0.00 | 56 | 978.0 |
| 20260508054745 | 6 | 20 | 11.3 | 20.9 | 0.00 | 0.00 | 0.00 | 55 | 978.0 |
| 20260508054245 | 6 | 21 | 11.3 | 22.5 | 0.00 | 0.00 | 0.00 | 54 | 978.0 |
| 20260508053745 | 5 | 9 | 12.9 | 22.5 | 0.00 | 0.00 | 0.00 | 58 | 978.0 |
| 20260508053245 | 6 | 18 | 11.3 | 22.5 | 0.00 | 0.00 | 0.00 | 56 | 978.0 |
| 20260508052745 | 5 | 16 | 9.7 | 19.3 | 0.00 | 0.00 | 0.00 | 56 | 978.0 |
| 20260508052245 | 6 | 21 | 9.7 | 17.7 | 0.00 | 0.00 | 0.00 | 56 | 978.0 |
| 20260508051715 | 5 | 13 | 8.0 | 17.7 | 0.00 | 0.00 | 0.00 | 56 | 978.0 |
| 20260508051145 | 6 | 16 | 8.0 | 14.5 | 0.00 | 0.00 | 0.00 | 55 | 977.6 |
| 20260508050645 | 6 | 20 | 6.4 | 14.5 | 0.00 | 0.00 | 0.00 | 54 | 977.5 |
| 20260508050145 | 7 | 29 | 6.4 | 14.5 | 0.00 | 0.00 | 0.00 | 48 | 977.6 |
| 20260508045615 | 8 | 14 | 3.2 | 11.3 | 0.00 | 0.00 | 0.00 | 47 | 977.6 |
| 20260508045115 | 10 | 337 | 1.6 | 8.0 | 0.00 | 0.00 | 0.00 | 44 | 978.0 |
| 20260508044615 | 11 | 174 | 1.6 | 4.8 | 0.00 | 0.00 | 0.00 | 47 | 978.1 |
| 20260508044045 | 9 | 163 | 1.6 | 6.4 | 0.00 | 0.00 | 0.00 | 50 | 978.0 |
| 20260508043545 | 8 | 128 | 3.2 | 6.4 | 0.00 | 0.00 | 0.00 | 54 | 978.0 |